Time,TemperatureF,DewpointF,PressureIn,WindDirection,WindDirectionDegrees,WindSpeedMPH,WindSpeedGustMPH,Humidity,HourlyPrecipIn,Conditions,Clouds,dailyrainin,SolarRadiationWatts/m^2,SoftwareType,DateUTC
2013-02-19 00:01:00,24.5,15.8,30.17,NW,310,4.0,0.0,69,0.00,,,0.00,0,WeatherTracker,2013-02-19 06:01:00,
2013-02-19 00:06:00,24.4,15.7,30.17,NW,315,3.0,0.0,69,0.00,,,0.00,0,WeatherTracker,2013-02-19 06:06:00,
2013-02-19 00:11:00,24.1,15.8,30.17,NW,315,4.0,0.0,70,0.00,,,0.00,0,WeatherTracker,2013-02-19 06:11:00,
2013-02-19 00:16:00,23.9,15.6,30.17,NW,314,6.0,0.0,70,0.00,,,0.00,0,WeatherTracker,2013-02-19 06:16:00,
2013-02-19 00:21:00,23.7,15.7,30.16,NNW,330,6.0,0.0,71,0.00,,,0.00,0,WeatherTracker,2013-02-19 06:21:00,
2013-02-19 00:26:00,23.6,15.6,30.17,NNW,330,5.0,0.0,71,0.00,,,0.00,0,WeatherTracker,2013-02-19 06:26:00,
2013-02-19 00:32:00,23.5,15.8,30.17,NNW,327,2.0,0.0,72,0.00,,,0.00,0,WeatherTracker,2013-02-19 06:32:00,
2013-02-19 00:37:00,23.4,15.7,30.18,NW,313,7.0,0.0,72,0.00,,,0.00,0,WeatherTracker,2013-02-19 06:37:00,
2013-02-19 00:42:00,23.6,15.6,30.18,NW,317,3.0,0.0,71,0.00,,,0.00,0,WeatherTracker,2013-02-19 06:42:00,
2013-02-19 00:47:00,23.6,15.6,30.18,NW,317,10.0,0.0,71,0.00,,,0.00,0,WeatherTracker,2013-02-19 06:47:00,
2013-02-19 00:52:00,23.6,15.3,30.18,NW,318,5.0,0.0,70,0.00,,,0.00,0,WeatherTracker,2013-02-19 06:52:00,
2013-02-19 00:57:00,23.6,15.3,30.18,NW,313,3.0,0.0,70,0.00,,,0.00,0,WeatherTracker,2013-02-19 06:57:00,
2013-02-19 01:02:00,23.6,15.3,30.18,NW,313,6.0,0.0,70,0.00,,,0.00,0,WeatherTracker,2013-02-19 07:02:00,
2013-02-19 01:07:00,23.5,15.2,30.19,NW,314,6.0,0.0,70,0.00,,,0.00,0,WeatherTracker,2013-02-19 07:07:00,
2013-02-19 01:12:00,23.4,15.1,30.19,NW,313,9.0,0.0,70,0.00,,,0.00,0,WeatherTracker,2013-02-19 07:12:00,
2013-02-19 01:17:00,23.1,15.1,30.19,NW,310,6.0,0.0,71,0.00,,,0.00,0,WeatherTracker,2013-02-19 07:17:00,
2013-02-19 01:22:00,22.9,14.9,30.19,NW,318,4.0,0.0,71,0.00,,,0.00,0,WeatherTracker,2013-02-19 07:22:00,
2013-02-19 01:27:00,22.7,15.1,30.19,NNW,346,9.0,0.0,72,0.00,,,0.00,0,WeatherTracker,2013-02-19 07:27:00,
2013-02-19 01:32:00,22.6,15.0,30.19,NNW,327,7.0,0.0,72,0.00,,,0.00,0,WeatherTracker,2013-02-19 07:32:00,
2013-02-19 01:37:00,22.5,14.9,30.20,NW,315,5.0,0.0,72,0.00,,,0.00,0,WeatherTracker,2013-02-19 07:37:00,
2013-02-19 01:42:00,22.4,14.8,30.20,NNW,333,2.0,0.0,72,0.00,,,0.00,0,WeatherTracker,2013-02-19 07:42:00,
2013-02-19 01:47:00,22.1,14.5,30.20,NW,319,5.0,0.0,72,0.00,,,0.00,0,WeatherTracker,2013-02-19 07:47:00,
2013-02-19 01:52:00,22.0,14.7,30.21,NNW,334,2.0,0.0,73,0.00,,,0.00,0,WeatherTracker,2013-02-19 07:52:00,
2013-02-19 01:57:00,21.7,14.4,30.20,NW,317,7.0,0.0,73,0.00,,,0.00,0,WeatherTracker,2013-02-19 07:57:00,
2013-02-19 02:03:00,21.5,14.2,30.21,NW,325,5.0,0.0,73,0.00,,,0.00,0,WeatherTracker,2013-02-19 08:03:00,
2013-02-19 02:08:00,21.3,14.0,30.21,NW,311,4.0,0.0,73,0.00,,,0.00,0,WeatherTracker,2013-02-19 08:08:00,
2013-02-19 02:13:00,21.1,14.1,30.21,NW,309,6.0,0.0,74,0.00,,,0.00,0,WeatherTracker,2013-02-19 08:13:00,
2013-02-19 02:18:00,20.9,13.9,30.21,NNW,329,7.0,0.0,74,0.00,,,0.00,0,WeatherTracker,2013-02-19 08:18:00,
2013-02-19 02:23:00,20.7,13.7,30.21,North,355,5.0,0.0,74,0.00,,,0.00,0,WeatherTracker,2013-02-19 08:23:00,
2013-02-19 02:28:00,20.6,13.7,30.21,NW,325,5.0,0.0,74,0.00,,,0.00,0,WeatherTracker,2013-02-19 08:28:00,
2013-02-19 02:33:00,20.4,13.5,30.21,NNW,330,5.0,0.0,74,0.00,,,0.00,0,WeatherTracker,2013-02-19 08:33:00,
2013-02-19 02:38:00,20.3,13.1,30.21,NW,322,3.0,0.0,73,0.00,,,0.00,0,WeatherTracker,2013-02-19 08:38:00,
2013-02-19 02:43:00,20.3,13.1,30.21,NW,321,4.0,0.0,73,0.00,,,0.00,0,WeatherTracker,2013-02-19 08:43:00,
2013-02-19 02:48:00,20.3,12.7,30.21,NW,322,11.0,0.0,72,0.00,,,0.00,0,WeatherTracker,2013-02-19 08:48:00,
2013-02-19 02:53:00,20.3,12.7,30.21,NW,316,3.0,0.0,72,0.00,,,0.00,0,WeatherTracker,2013-02-19 08:53:00,
2013-02-19 02:58:00,20.2,12.6,30.21,NNW,332,3.0,0.0,72,0.00,,,0.00,0,WeatherTracker,2013-02-19 08:58:00,
2013-02-19 03:03:00,20.2,12.6,30.21,NW,315,5.0,0.0,72,0.00,,,0.00,0,WeatherTracker,2013-02-19 09:03:00,
2013-02-19 03:08:00,20.0,12.5,30.22,NW,315,6.0,0.0,72,0.00,,,0.00,0,WeatherTracker,2013-02-19 09:08:00,
2013-02-19 03:13:00,19.8,12.3,30.21,NW,309,5.0,0.0,72,0.00,,,0.00,0,WeatherTracker,2013-02-19 09:13:00,
2013-02-19 03:18:00,19.7,12.2,30.21,NNW,336,7.0,0.0,72,0.00,,,0.00,0,WeatherTracker,2013-02-19 09:18:00,
2013-02-19 03:23:00,19.7,12.2,30.22,NW,314,3.0,0.0,72,0.00,,,0.00,0,WeatherTracker,2013-02-19 09:23:00,
2013-02-19 03:29:00,19.7,12.5,30.22,NW,322,3.0,0.0,73,0.00,,,0.00,0,WeatherTracker,2013-02-19 09:29:00,
2013-02-19 03:33:00,19.5,12.3,30.22,NW,323,7.0,0.0,73,0.00,,,0.00,0,WeatherTracker,2013-02-19 09:33:00,
2013-02-19 03:39:00,19.4,12.2,30.22,NNW,335,5.0,0.0,73,0.00,,,0.00,0,WeatherTracker,2013-02-19 09:39:00,
2013-02-19 03:44:00,19.3,12.4,30.21,NW,321,4.0,0.0,74,0.00,,,0.00,0,WeatherTracker,2013-02-19 09:44:00,
2013-02-19 03:49:00,19.3,12.4,30.22,NW,320,3.0,0.0,74,0.00,,,0.00,0,WeatherTracker,2013-02-19 09:49:00,
2013-02-19 03:54:00,19.2,12.3,30.22,NW,309,3.0,0.0,74,0.00,,,0.00,0,WeatherTracker,2013-02-19 09:54:00,
2013-02-19 03:59:00,19.1,12.2,30.22,NW,315,7.0,0.0,74,0.00,,,0.00,0,WeatherTracker,2013-02-19 09:59:00,
2013-02-19 04:04:00,19.0,12.1,30.22,NW,318,4.0,0.0,74,0.00,,,0.00,0,WeatherTracker,2013-02-19 10:04:00,
2013-02-19 04:09:00,18.8,12.2,30.23,NW,317,1.0,0.0,75,0.00,,,0.00,0,WeatherTracker,2013-02-19 10:09:00,
2013-02-19 04:14:00,18.6,12.0,30.23,NW,315,4.0,0.0,75,0.00,,,0.00,0,WeatherTracker,2013-02-19 10:14:00,
2013-02-19 04:19:00,18.4,11.8,30.23,WNW,299,4.0,0.0,75,0.00,,,0.00,0,WeatherTracker,2013-02-19 10:19:00,
2013-02-19 04:24:00,18.2,11.9,30.23,NW,314,10.0,0.0,76,0.00,,,0.00,0,WeatherTracker,2013-02-19 10:24:00,
2013-02-19 04:29:00,18.1,11.8,30.23,NW,314,3.0,0.0,76,0.00,,,0.00,0,WeatherTracker,2013-02-19 10:29:00,
2013-02-19 04:34:00,18.0,11.7,30.24,NW,314,4.0,0.0,76,0.00,,,0.00,0,WeatherTracker,2013-02-19 10:34:00,
2013-02-19 04:39:00,17.9,11.6,30.24,NNW,340,7.0,0.0,76,0.00,,,0.00,0,WeatherTracker,2013-02-19 10:39:00,
2013-02-19 04:44:00,17.7,11.4,30.24,NNW,327,5.0,0.0,76,0.00,,,0.00,0,WeatherTracker,2013-02-19 10:44:00,
2013-02-19 04:49:00,17.6,11.6,30.24,NNW,327,5.0,0.0,77,0.00,,,0.00,0,WeatherTracker,2013-02-19 10:49:00,
2013-02-19 04:54:00,17.5,11.5,30.24,North,355,4.0,0.0,77,0.00,,,0.00,0,WeatherTracker,2013-02-19 10:54:00,
2013-02-19 04:59:00,17.4,11.4,30.25,NNE,16,4.0,0.0,77,0.00,,,0.00,0,WeatherTracker,2013-02-19 10:59:00,
2013-02-19 05:04:00,17.2,11.3,30.25,North,355,3.0,0.0,77,0.00,,,0.00,0,WeatherTracker,2013-02-19 11:04:00,
2013-02-19 05:09:00,17.1,11.2,30.25,NNW,334,9.0,0.0,77,0.00,,,0.00,0,WeatherTracker,2013-02-19 11:09:00,
2013-02-19 05:14:00,17.0,11.1,30.25,NW,326,9.0,0.0,77,0.00,,,0.00,0,WeatherTracker,2013-02-19 11:14:00,
2013-02-19 05:19:00,16.9,11.0,30.26,NW,321,4.0,0.0,77,0.00,,,0.00,0,WeatherTracker,2013-02-19 11:19:00,
2013-02-19 05:24:00,16.8,10.9,30.26,NW,321,9.0,0.0,77,0.00,,,0.00,0,WeatherTracker,2013-02-19 11:24:00,
2013-02-19 05:30:00,16.7,10.8,30.27,WNW,292,5.0,0.0,77,0.00,,,0.00,0,WeatherTracker,2013-02-19 11:30:00,
2013-02-19 05:35:00,16.6,11.0,30.27,WNW,293,2.0,0.0,78,0.00,,,0.00,0,WeatherTracker,2013-02-19 11:35:00,
2013-02-19 05:40:00,16.5,10.9,30.27,WNW,298,2.0,0.0,78,0.00,,,0.00,0,WeatherTracker,2013-02-19 11:40:00,
2013-02-19 05:45:00,16.5,10.6,30.27,NNW,345,2.0,0.0,77,0.00,,,0.00,0,WeatherTracker,2013-02-19 11:45:00,
2013-02-19 05:50:00,16.4,10.5,30.27,NW,317,4.0,0.0,77,0.00,,,0.00,0,WeatherTracker,2013-02-19 11:50:00,
2013-02-19 05:55:00,16.3,10.4,30.27,NW,313,3.0,0.0,77,0.00,,,0.00,0,WeatherTracker,2013-02-19 11:55:00,
2013-02-19 06:00:00,16.3,10.4,30.27,NW,311,7.0,0.0,77,0.00,,,0.00,0,WeatherTracker,2013-02-19 12:00:00,
2013-02-19 06:05:00,16.2,10.0,30.28,NW,307,10.0,0.0,76,0.00,,,0.00,0,WeatherTracker,2013-02-19 12:05:00,
2013-02-19 06:10:00,16.1,9.9,30.28,NW,315,6.0,0.0,76,0.00,,,0.00,0,WeatherTracker,2013-02-19 12:10:00,
2013-02-19 06:15:00,16.0,9.8,30.28,NW,317,3.0,0.0,76,0.00,,,0.00,0,WeatherTracker,2013-02-19 12:15:00,
2013-02-19 06:20:00,15.9,9.7,30.28,NW,318,4.0,0.0,76,0.00,,,0.00,0,WeatherTracker,2013-02-19 12:20:00,
2013-02-19 06:25:00,15.8,9.6,30.28,NW,307,11.0,0.0,76,0.00,,,0.00,0,WeatherTracker,2013-02-19 12:25:00,
2013-02-19 06:30:00,15.7,9.5,30.29,NW,321,4.0,0.0,76,0.00,,,0.00,0,WeatherTracker,2013-02-19 12:30:00,
2013-02-19 06:35:00,15.6,9.4,30.29,NW,319,5.0,0.0,76,0.00,,,0.00,0,WeatherTracker,2013-02-19 12:35:00,
2013-02-19 06:40:00,15.4,9.5,30.30,WNW,290,6.0,0.0,77,0.00,,,0.00,0,WeatherTracker,2013-02-19 12:40:00,
2013-02-19 06:45:00,15.3,9.4,30.30,WNW,292,7.0,0.0,77,0.00,,,0.00,0,WeatherTracker,2013-02-19 12:45:00,
2013-02-19 06:50:00,15.2,9.3,30.30,NW,315,3.0,0.0,77,0.00,,,0.00,0,WeatherTracker,2013-02-19 12:50:00,
2013-02-19 06:55:00,15.1,9.2,30.30,NW,325,3.0,0.0,77,0.00,,,0.00,0,WeatherTracker,2013-02-19 12:55:00,
2013-02-19 07:00:00,15.0,9.1,30.30,WNW,300,6.0,0.0,77,0.00,,,0.00,0,WeatherTracker,2013-02-19 13:00:00,
2013-02-19 07:05:00,15.0,9.4,30.31,NW,304,11.0,0.0,78,0.00,,,0.00,0,WeatherTracker,2013-02-19 13:05:00,
2013-02-19 07:10:00,15.0,9.4,30.31,NW,321,6.0,0.0,78,0.00,,,0.00,0,WeatherTracker,2013-02-19 13:10:00,
2013-02-19 07:15:00,14.9,9.3,30.31,NW,326,4.0,0.0,78,0.00,,,0.00,0,WeatherTracker,2013-02-19 13:15:00,
2013-02-19 07:20:00,14.8,9.2,30.32,NW,326,4.0,0.0,78,0.00,,,0.00,5,WeatherTracker,2013-02-19 13:20:00,
2013-02-19 07:25:00,14.8,9.2,30.32,NNW,327,3.0,0.0,78,0.00,,,0.00,9,WeatherTracker,2013-02-19 13:25:00,
2013-02-19 07:30:00,14.8,9.2,30.32,NW,326,4.0,0.0,78,0.00,,,0.00,11,WeatherTracker,2013-02-19 13:30:00,
2013-02-19 07:35:00,14.8,9.2,30.32,NW,317,3.0,0.0,78,0.00,,,0.00,14,WeatherTracker,2013-02-19 13:35:00,
2013-02-19 07:40:00,14.9,9.3,30.32,North,355,3.0,0.0,78,0.00,,,0.00,18,WeatherTracker,2013-02-19 13:40:00,
2013-02-19 07:46:00,14.9,9.3,30.33,NNW,331,6.0,0.0,78,0.00,,,0.00,23,WeatherTracker,2013-02-19 13:46:00,
2013-02-19 07:51:00,15.0,9.4,30.34,WNW,297,4.0,0.0,78,0.00,,,0.00,35,WeatherTracker,2013-02-19 13:51:00,
2013-02-19 07:56:00,15.2,9.6,30.34,NW,306,3.0,0.0,78,0.00,,,0.00,46,WeatherTracker,2013-02-19 13:56:00,
2013-02-19 08:01:00,15.3,9.7,30.34,NNW,338,3.0,0.0,78,0.00,,,0.00,60,WeatherTracker,2013-02-19 14:01:00,
2013-02-19 08:06:00,15.4,9.5,30.35,NNW,329,1.0,0.0,77,0.00,,,0.00,74,WeatherTracker,2013-02-19 14:06:00,
2013-02-19 08:11:00,15.4,9.5,30.35,NNW,329,3.0,0.0,77,0.00,,,0.00,37,WeatherTracker,2013-02-19 14:11:00,
2013-02-19 08:16:00,15.4,9.5,30.35,NNW,332,3.0,0.0,77,0.00,,,0.00,109,WeatherTracker,2013-02-19 14:16:00,
2013-02-19 08:21:00,15.6,9.7,30.35,NNE,14,2.0,0.0,77,0.00,,,0.00,107,WeatherTracker,2013-02-19 14:21:00,
2013-02-19 08:26:00,15.7,9.8,30.35,NNE,26,12.0,0.0,77,0.00,,,0.00,74,WeatherTracker,2013-02-19 14:26:00,
2013-02-19 08:31:00,15.7,9.8,30.35,NNE,22,9.0,0.0,77,0.00,,,0.00,121,WeatherTracker,2013-02-19 14:31:00,
2013-02-19 08:36:00,15.9,10.0,30.35,North,355,4.0,0.0,77,0.00,,,0.00,211,WeatherTracker,2013-02-19 14:36:00,
2013-02-19 08:41:00,16.0,9.8,30.35,NNE,24,14.0,0.0,76,0.00,,,0.00,100,WeatherTracker,2013-02-19 14:41:00,
2013-02-19 08:46:00,15.8,9.3,30.36,North,360,5.0,0.0,75,0.00,,,0.00,95,WeatherTracker,2013-02-19 14:46:00,
2013-02-19 08:51:00,16.2,9.7,30.36,NNE,32,2.0,0.0,75,0.00,,,0.00,251,WeatherTracker,2013-02-19 14:51:00,
2013-02-19 08:56:00,16.4,9.9,30.36,NNW,343,7.0,0.0,75,0.00,,,0.00,272,WeatherTracker,2013-02-19 14:56:00,
2013-02-19 09:01:00,16.6,10.1,30.36,NNW,345,4.0,0.0,75,0.00,,,0.00,276,WeatherTracker,2013-02-19 15:01:00,
2013-02-19 09:06:00,16.6,9.8,30.37,NW,321,3.0,0.0,74,0.00,,,0.00,207,WeatherTracker,2013-02-19 15:06:00,
2013-02-19 09:11:00,16.7,9.9,30.37,NE,44,6.0,0.0,74,0.00,,,0.00,299,WeatherTracker,2013-02-19 15:11:00,
2013-02-19 09:16:00,16.9,9.8,30.38,NNE,17,13.0,0.0,73,0.00,,,0.00,315,WeatherTracker,2013-02-19 15:16:00,
2013-02-19 09:21:00,16.8,9.7,30.38,NNE,15,6.0,0.0,73,0.00,,,0.00,334,WeatherTracker,2013-02-19 15:21:00,
2013-02-19 09:26:00,16.7,9.0,30.39,NNW,340,15.0,0.0,71,0.00,,,0.00,348,WeatherTracker,2013-02-19 15:26:00,
2013-02-19 09:32:00,16.9,9.5,30.38,North,349,3.0,0.0,72,0.00,,,0.00,362,WeatherTracker,2013-02-19 15:32:00,
2013-02-19 09:37:00,17.1,9.7,30.39,North,10,3.0,0.0,72,0.00,,,0.00,320,WeatherTracker,2013-02-19 15:37:00,
2013-02-19 09:42:00,17.4,9.3,30.39,NNE,23,12.0,0.0,70,0.00,,,0.00,394,WeatherTracker,2013-02-19 15:42:00,
2013-02-19 09:47:00,17.2,9.1,30.39,WNW,295,11.0,0.0,70,0.00,,,0.00,404,WeatherTracker,2013-02-19 15:47:00,
2013-02-19 09:52:00,17.0,8.6,30.39,WNW,293,11.0,0.0,69,0.00,,,0.00,165,WeatherTracker,2013-02-19 15:52:00,
2013-02-19 09:57:00,16.8,8.1,30.39,NNE,17,10.0,0.0,68,0.00,,,0.00,111,WeatherTracker,2013-02-19 15:57:00,
2013-02-19 10:02:00,17.1,8.1,30.39,NNW,331,11.0,0.0,67,0.00,,,0.00,441,WeatherTracker,2013-02-19 16:02:00,
2013-02-19 10:07:00,17.2,7.5,30.39,North,355,14.0,0.0,65,0.00,,,0.00,454,WeatherTracker,2013-02-19 16:07:00,
2013-02-19 10:12:00,17.3,7.6,30.40,NW,309,7.0,0.0,65,0.00,,,0.00,466,WeatherTracker,2013-02-19 16:12:00,
2013-02-19 10:17:00,17.8,7.7,30.40,NNW,330,11.0,0.0,64,0.00,,,0.00,478,WeatherTracker,2013-02-19 16:17:00,
2013-02-19 10:22:00,17.6,7.2,30.40,WNW,288,5.0,0.0,63,0.00,,,0.00,490,WeatherTracker,2013-02-19 16:22:00,
2013-02-19 10:27:00,18.1,7.7,30.40,NNW,334,5.0,0.0,63,0.00,,,0.00,503,WeatherTracker,2013-02-19 16:27:00,
2013-02-19 10:32:00,18.6,7.4,30.40,North,360,10.0,0.0,61,0.00,,,0.00,512,WeatherTracker,2013-02-19 16:32:00,
2013-02-19 10:37:00,18.5,6.2,30.40,WNW,300,9.0,0.0,58,0.00,,,0.00,524,WeatherTracker,2013-02-19 16:37:00,
2013-02-19 10:42:00,18.4,5.7,30.40,NNW,339,7.0,0.0,57,0.00,,,0.00,534,WeatherTracker,2013-02-19 16:42:00,
2013-02-19 10:47:00,19.0,6.3,30.39,WNW,296,3.0,0.0,57,0.00,,,0.00,543,WeatherTracker,2013-02-19 16:47:00,
2013-02-19 10:52:00,18.8,5.3,30.39,NNW,329,11.0,0.0,55,0.00,,,0.00,554,WeatherTracker,2013-02-19 16:52:00,
2013-02-19 10:57:00,19.0,5.5,30.40,NNW,342,3.0,0.0,55,0.00,,,0.00,563,WeatherTracker,2013-02-19 16:57:00,
2013-02-19 11:02:00,19.6,6.1,30.40,North,9,11.0,0.0,55,0.00,,,0.00,570,WeatherTracker,2013-02-19 17:02:00,
2013-02-19 11:07:00,19.7,5.8,30.40,WNW,294,4.0,0.0,54,0.00,,,0.00,578,WeatherTracker,2013-02-19 17:07:00,
2013-02-19 11:12:00,20.0,6.1,30.40,NW,323,9.0,0.0,54,0.00,,,0.00,585,WeatherTracker,2013-02-19 17:12:00,
2013-02-19 11:17:00,20.0,6.1,30.40,NNE,18,4.0,0.0,54,0.00,,,0.00,594,WeatherTracker,2013-02-19 17:17:00,
2013-02-19 11:22:00,20.3,6.3,30.40,NNW,348,4.0,0.0,54,0.00,,,0.00,601,WeatherTracker,2013-02-19 17:22:00,
2013-02-19 11:27:00,20.7,5.9,30.41,NNW,333,6.0,0.0,52,0.00,,,0.00,606,WeatherTracker,2013-02-19 17:27:00,
2013-02-19 11:33:00,20.8,6.0,30.41,NE,38,10.0,0.0,52,0.00,,,0.00,613,WeatherTracker,2013-02-19 17:33:00,
2013-02-19 11:38:00,20.7,5.5,30.41,NNW,346,3.0,0.0,51,0.00,,,0.00,617,WeatherTracker,2013-02-19 17:38:00,
2013-02-19 11:43:00,21.1,5.8,30.41,NE,34,7.0,0.0,51,0.00,,,0.00,626,WeatherTracker,2013-02-19 17:43:00,
2013-02-19 11:48:00,21.2,5.1,30.41,NNW,340,4.0,0.0,49,0.00,,,0.00,633,WeatherTracker,2013-02-19 17:48:00,
2013-02-19 11:53:00,21.4,5.2,30.41,NE,44,2.0,0.0,49,0.00,,,0.00,636,WeatherTracker,2013-02-19 17:53:00,
2013-02-19 11:58:00,21.6,5.4,30.41,NNW,337,3.0,0.0,49,0.00,,,0.00,642,WeatherTracker,2013-02-19 17:58:00,
2013-02-19 12:03:00,21.7,5.1,30.41,NNW,344,5.0,0.0,48,0.00,,,0.00,647,WeatherTracker,2013-02-19 18:03:00,
2013-02-19 12:08:00,21.7,5.5,30.41,NE,51,3.0,0.0,49,0.00,,,0.00,649,WeatherTracker,2013-02-19 18:08:00,
2013-02-19 12:13:00,22.2,5.1,30.41,NNE,31,4.0,0.0,47,0.00,,,0.00,652,WeatherTracker,2013-02-19 18:13:00,
2013-02-19 12:18:00,22.1,5.0,30.41,NW,313,9.0,0.0,47,0.00,,,0.00,652,WeatherTracker,2013-02-19 18:18:00,
2013-02-19 12:23:00,22.8,6.5,30.40,North,351,2.0,0.0,49,0.00,,,0.00,656,WeatherTracker,2013-02-19 18:23:00,
2013-02-19 12:28:00,23.6,5.9,30.40,NE,49,3.0,0.0,46,0.00,,,0.00,661,WeatherTracker,2013-02-19 18:28:00,
2013-02-19 12:33:00,23.7,6.0,30.40,NW,306,4.0,0.0,46,0.00,,,0.00,663,WeatherTracker,2013-02-19 18:33:00,
2013-02-19 12:38:00,23.3,4.6,30.40,NW,311,3.0,0.0,44,0.00,,,0.00,661,WeatherTracker,2013-02-19 18:38:00,
2013-02-19 12:43:00,23.2,5.0,30.40,NNE,26,10.0,0.0,45,0.00,,,0.00,663,WeatherTracker,2013-02-19 18:43:00,
2013-02-19 12:48:00,23.4,5.2,30.39,North,355,10.0,0.0,45,0.00,,,0.00,661,WeatherTracker,2013-02-19 18:48:00,
2013-02-19 12:53:00,23.8,5.6,30.39,NNW,347,1.0,0.0,45,0.00,,,0.00,661,WeatherTracker,2013-02-19 18:53:00,
2013-02-19 12:58:00,24.1,4.9,30.39,North,360,5.0,0.0,43,0.00,,,0.00,661,WeatherTracker,2013-02-19 18:58:00,
2013-02-19 13:03:00,24.3,5.1,30.39,North,360,2.0,0.0,43,0.00,,,0.00,661,WeatherTracker,2013-02-19 19:03:00,
2013-02-19 13:08:00,24.7,5.4,30.39,NNW,331,7.0,0.0,43,0.00,,,0.00,659,WeatherTracker,2013-02-19 19:08:00,
2013-02-19 13:14:00,24.5,5.2,30.38,ENE,63,2.0,0.0,43,0.00,,,0.00,656,WeatherTracker,2013-02-19 19:14:00,
2013-02-19 13:19:00,24.3,5.1,30.38,North,360,3.0,0.0,43,0.00,,,0.00,654,WeatherTracker,2013-02-19 19:19:00,
2013-02-19 13:24:00,24.9,5.1,30.38,NNE,18,6.0,0.0,42,0.00,,,0.00,652,WeatherTracker,2013-02-19 19:24:00,
2013-02-19 13:29:00,24.9,4.6,30.38,NNE,29,6.0,0.0,41,0.00,,,0.00,649,WeatherTracker,2013-02-19 19:29:00,
2013-02-19 13:34:00,25.0,4.7,30.38,NNE,13,7.0,0.0,41,0.00,,,0.00,645,WeatherTracker,2013-02-19 19:34:00,
2013-02-19 13:39:00,25.1,4.2,30.37,NW,314,6.0,0.0,40,0.00,,,0.00,640,WeatherTracker,2013-02-19 19:39:00,
2013-02-19 13:44:00,25.5,4.6,30.37,North,5,9.0,0.0,40,0.00,,,0.00,636,WeatherTracker,2013-02-19 19:44:00,
2013-02-19 13:49:00,25.6,4.7,30.37,NNE,28,6.0,0.0,40,0.00,,,0.00,631,WeatherTracker,2013-02-19 19:49:00,
2013-02-19 13:54:00,25.4,4.5,30.36,NNE,28,5.0,0.0,40,0.00,,,0.00,626,WeatherTracker,2013-02-19 19:54:00,
2013-02-19 13:59:00,25.4,4.5,30.37,NE,46,7.0,0.0,40,0.00,,,0.00,619,WeatherTracker,2013-02-19 19:59:00,
2013-02-19 14:04:00,25.5,4.0,30.37,NE,45,2.0,0.0,39,0.00,,,0.00,612,WeatherTracker,2013-02-19 20:04:00,
2013-02-19 14:09:00,25.8,4.3,30.37,NNE,22,1.0,0.0,39,0.00,,,0.00,606,WeatherTracker,2013-02-19 20:09:00,
2013-02-19 14:14:00,26.1,4.0,30.36,NE,41,1.0,0.0,38,0.00,,,0.00,598,WeatherTracker,2013-02-19 20:14:00,
2013-02-19 14:19:00,26.5,4.4,30.37,NW,322,3.0,0.0,38,0.00,,,0.00,591,WeatherTracker,2013-02-19 20:19:00,
2013-02-19 14:24:00,26.4,3.7,30.36,North,355,7.0,0.0,37,0.00,,,0.00,582,WeatherTracker,2013-02-19 20:24:00,
2013-02-19 14:29:00,26.3,4.2,30.36,North,355,6.0,0.0,38,0.00,,,0.00,573,WeatherTracker,2013-02-19 20:29:00,
2013-02-19 14:34:00,26.9,3.6,30.35,NW,314,3.0,0.0,36,0.00,,,0.00,568,WeatherTracker,2013-02-19 20:34:00,
2013-02-19 14:39:00,27.0,3.0,30.36,NNE,25,1.0,0.0,35,0.00,,,0.00,557,WeatherTracker,2013-02-19 20:39:00,
2013-02-19 14:44:00,27.0,3.0,30.35,NW,317,3.0,0.0,35,0.00,,,0.00,550,WeatherTracker,2013-02-19 20:44:00,
2013-02-19 14:49:00,27.2,2.6,30.35,North,355,1.0,0.0,34,0.00,,,0.00,538,WeatherTracker,2013-02-19 20:49:00,
2013-02-19 14:54:00,27.6,3.6,30.34,North,5,9.0,0.0,35,0.00,,,0.00,529,WeatherTracker,2013-02-19 20:54:00,
2013-02-19 15:00:00,27.4,2.8,30.35,NNW,330,7.0,0.0,34,0.00,,,0.00,519,WeatherTracker,2013-02-19 21:00:00,
2013-02-19 15:05:00,27.4,2.8,30.35,NE,34,3.0,0.0,34,0.00,,,0.00,508,WeatherTracker,2013-02-19 21:05:00,
2013-02-19 15:10:00,27.2,2.6,30.35,NE,54,4.0,0.0,34,0.00,,,0.00,497,WeatherTracker,2013-02-19 21:10:00,
2013-02-19 15:15:00,27.6,2.3,30.36,North,360,1.0,0.0,33,0.00,,,0.00,485,WeatherTracker,2013-02-19 21:15:00,
2013-02-19 15:20:00,27.8,2.5,30.36,NE,49,2.0,0.0,33,0.00,,,0.00,471,WeatherTracker,2013-02-19 21:20:00,
2013-02-19 15:25:00,27.7,3.0,30.36,NE,49,0.0,0.0,34,0.00,,,0.00,461,WeatherTracker,2013-02-19 21:25:00,
2013-02-19 15:30:00,27.7,2.4,30.35,ENE,73,3.0,0.0,33,0.00,,,0.00,448,WeatherTracker,2013-02-19 21:30:00,
2013-02-19 15:35:00,27.9,2.6,30.35,NE,46,0.0,0.0,33,0.00,,,0.00,434,WeatherTracker,2013-02-19 21:35:00,
2013-02-19 15:40:00,28.5,3.1,30.35,North,5,1.0,0.0,33,0.00,,,0.00,422,WeatherTracker,2013-02-19 21:40:00,
2013-02-19 15:45:00,28.6,2.5,30.35,North,5,4.0,0.0,32,0.00,,,0.00,410,WeatherTracker,2013-02-19 21:45:00,
2013-02-19 15:50:00,28.5,1.8,30.35,NNE,13,4.0,0.0,31,0.00,,,0.00,396,WeatherTracker,2013-02-19 21:50:00,
2013-02-19 15:55:00,28.5,2.4,30.35,NNE,13,1.0,0.0,32,0.00,,,0.00,381,WeatherTracker,2013-02-19 21:55:00,
2013-02-19 16:00:00,28.5,1.8,30.34,NE,54,3.0,0.0,31,0.00,,,0.00,369,WeatherTracker,2013-02-19 22:00:00,
2013-02-19 16:05:00,27.6,1.0,30.34,ENE,57,5.0,0.0,31,0.00,,,0.00,357,WeatherTracker,2013-02-19 22:05:00,
2013-02-19 16:10:00,27.8,1.1,30.35,NE,56,1.0,0.0,31,0.00,,,0.00,341,WeatherTracker,2013-02-19 22:10:00,
2013-02-19 16:15:00,27.6,1.0,30.34,North,5,4.0,0.0,31,0.00,,,0.00,325,WeatherTracker,2013-02-19 22:15:00,
2013-02-19 16:20:00,28.0,2.0,30.34,North,360,4.0,0.0,32,0.00,,,0.00,311,WeatherTracker,2013-02-19 22:20:00,
2013-02-19 16:25:00,28.0,1.3,30.34,NE,37,3.0,0.0,31,0.00,,,0.00,295,WeatherTracker,2013-02-19 22:25:00,
2013-02-19 16:31:00,27.8,0.4,30.34,NNE,15,3.0,0.0,30,0.00,,,0.00,281,WeatherTracker,2013-02-19 22:31:00,
2013-02-19 16:36:00,27.9,1.2,30.34,NE,49,6.0,0.0,31,0.00,,,0.00,260,WeatherTracker,2013-02-19 22:36:00,
2013-02-19 16:41:00,27.3,0.0,30.33,ENE,74,2.0,0.0,30,0.00,,,0.00,246,WeatherTracker,2013-02-19 22:41:00,
2013-02-19 16:46:00,27.5,0.2,30.34,ENE,58,2.0,0.0,30,0.00,,,0.00,225,WeatherTracker,2013-02-19 22:46:00,
2013-02-19 16:51:00,27.5,0.2,30.34,ENE,57,4.0,0.0,30,0.00,,,0.00,207,WeatherTracker,2013-02-19 22:51:00,
2013-02-19 16:56:00,27.1,-0.2,30.34,ENE,61,4.0,0.0,30,0.00,,,0.00,192,WeatherTracker,2013-02-19 22:56:00,
2013-02-19 17:01:00,27.0,-0.3,30.33,NE,52,7.0,0.0,30,0.00,,,0.00,171,WeatherTracker,2013-02-19 23:01:00,
2013-02-19 17:06:00,27.0,-0.3,30.33,ENE,57,5.0,0.0,30,0.00,,,0.00,153,WeatherTracker,2013-02-19 23:06:00,
2013-02-19 17:11:00,27.0,-0.3,30.33,NE,44,2.0,0.0,30,0.00,,,0.00,134,WeatherTracker,2013-02-19 23:11:00,
2013-02-19 17:16:00,27.1,0.5,30.34,NE,45,4.0,0.0,31,0.00,,,0.00,113,WeatherTracker,2013-02-19 23:16:00,
2013-02-19 17:21:00,26.9,0.3,30.33,ENE,59,2.0,0.0,31,0.00,,,0.00,77,WeatherTracker,2013-02-19 23:21:00,
2013-02-19 17:26:00,26.7,0.2,30.34,NE,38,4.0,0.0,31,0.00,,,0.00,76,WeatherTracker,2013-02-19 23:26:00,
2013-02-19 17:31:00,26.5,0.0,30.34,ENE,60,5.0,0.0,31,0.00,,,0.00,58,WeatherTracker,2013-02-19 23:31:00,
2013-02-19 17:36:00,26.2,-0.3,30.33,ENE,61,6.0,0.0,31,0.00,,,0.00,37,WeatherTracker,2013-02-19 23:36:00,
2013-02-19 17:41:00,25.9,0.1,30.33,ENE,63,4.0,0.0,32,0.00,,,0.00,23,WeatherTracker,2013-02-19 23:41:00,
2013-02-19 17:46:00,25.7,0.0,30.33,ENE,69,2.0,0.0,32,0.00,,,0.00,21,WeatherTracker,2013-02-19 23:46:00,
2013-02-19 17:51:00,25.5,0.4,30.33,ENE,69,7.0,0.0,33,0.00,,,0.00,16,WeatherTracker,2013-02-19 23:51:00,
2013-02-19 17:56:00,25.3,0.9,30.34,ENE,69,2.0,0.0,34,0.00,,,0.00,14,WeatherTracker,2013-02-19 23:56:00,
2013-02-19 18:01:00,25.1,0.7,30.34,ENE,71,3.0,0.0,34,0.00,,,0.00,11,WeatherTracker,2013-02-20 00:01:00,
2013-02-19 18:07:00,24.8,0.5,30.33,ENE,71,4.0,0.0,34,0.00,,,0.00,7,WeatherTracker,2013-02-20 00:07:00,
2013-02-19 18:12:00,24.6,0.9,30.33,ENE,71,4.0,0.0,35,0.00,,,0.00,5,WeatherTracker,2013-02-20 00:12:00,
2013-02-19 18:17:00,24.5,0.8,30.33,ENE,66,3.0,0.0,35,0.00,,,0.00,0,WeatherTracker,2013-02-20 00:17:00,
2013-02-19 18:22:00,24.3,0.6,30.33,ENE,64,2.0,0.0,35,0.00,,,0.00,0,WeatherTracker,2013-02-20 00:22:00,
2013-02-19 18:27:00,24.1,1.1,30.33,ENE,64,4.0,0.0,36,0.00,,,0.00,0,WeatherTracker,2013-02-20 00:27:00,
2013-02-19 18:32:00,23.9,0.9,30.33,ENE,65,4.0,0.0,36,0.00,,,0.00,0,WeatherTracker,2013-02-20 00:32:00,
2013-02-19 18:37:00,23.8,0.8,30.33,ENE,65,4.0,0.0,36,0.00,,,0.00,0,WeatherTracker,2013-02-20 00:37:00,
2013-02-19 18:42:00,23.7,1.3,30.34,ENE,65,3.0,0.0,37,0.00,,,0.00,0,WeatherTracker,2013-02-20 00:42:00,
2013-02-19 18:47:00,23.5,1.1,30.34,ENE,65,2.0,0.0,37,0.00,,,0.00,0,WeatherTracker,2013-02-20 00:47:00,
2013-02-19 18:52:00,23.4,1.0,30.34,ENE,64,2.0,0.0,37,0.00,,,0.00,0,WeatherTracker,2013-02-20 00:52:00,
2013-02-19 18:57:00,23.1,1.3,30.34,ENE,65,3.0,0.0,38,0.00,,,0.00,0,WeatherTracker,2013-02-20 00:57:00,
2013-02-19 19:02:00,22.9,1.1,30.34,ENE,65,2.0,0.0,38,0.00,,,0.00,0,WeatherTracker,2013-02-20 01:02:00,
2013-02-19 19:07:00,22.8,1.0,30.34,ENE,65,2.0,0.0,38,0.00,,,0.00,0,WeatherTracker,2013-02-20 01:07:00,
2013-02-19 19:12:00,22.6,0.9,30.34,ENE,64,5.0,0.0,38,0.00,,,0.00,0,WeatherTracker,2013-02-20 01:12:00,
2013-02-19 19:17:00,22.5,1.3,30.34,ENE,65,3.0,0.0,39,0.00,,,0.00,0,WeatherTracker,2013-02-20 01:17:00,
2013-02-19 19:22:00,22.4,0.7,30.34,ENE,65,4.0,0.0,38,0.00,,,0.00,0,WeatherTracker,2013-02-20 01:22:00,
2013-02-19 19:27:00,22.2,1.1,30.34,ENE,64,3.0,0.0,39,0.00,,,0.00,0,WeatherTracker,2013-02-20 01:27:00,
2013-02-19 19:32:00,22.0,1.4,30.34,ENE,64,3.0,0.0,40,0.00,,,0.00,0,WeatherTracker,2013-02-20 01:32:00,
2013-02-19 19:37:00,21.9,0.8,30.34,ENE,65,4.0,0.0,39,0.00,,,0.00,0,WeatherTracker,2013-02-20 01:37:00,
2013-02-19 19:42:00,21.7,1.1,30.34,ENE,65,4.0,0.0,40,0.00,,,0.00,0,WeatherTracker,2013-02-20 01:42:00,
2013-02-19 19:47:00,21.5,1.0,30.34,ENE,64,2.0,0.0,40,0.00,,,0.00,0,WeatherTracker,2013-02-20 01:47:00,
2013-02-19 19:52:00,21.2,1.2,30.34,ENE,65,2.0,0.0,41,0.00,,,0.00,0,WeatherTracker,2013-02-20 01:52:00,
2013-02-19 19:57:00,21.0,1.0,30.35,ENE,65,4.0,0.0,41,0.00,,,0.00,0,WeatherTracker,2013-02-20 01:57:00,
2013-02-19 20:02:00,20.8,1.4,30.35,ENE,65,2.0,0.0,42,0.00,,,0.00,0,WeatherTracker,2013-02-20 02:02:00,
2013-02-19 20:08:00,20.7,1.3,30.35,ENE,65,3.0,0.0,42,0.00,,,0.00,0,WeatherTracker,2013-02-20 02:08:00,
2013-02-19 20:13:00,20.5,1.6,30.36,ENE,65,2.0,0.0,43,0.00,,,0.00,0,WeatherTracker,2013-02-20 02:13:00,
2013-02-19 20:18:00,20.2,1.8,30.37,ENE,66,2.0,0.0,44,0.00,,,0.00,0,WeatherTracker,2013-02-20 02:18:00,
2013-02-19 20:23:00,20.0,1.1,30.37,ENE,66,3.0,0.0,43,0.00,,,0.00,0,WeatherTracker,2013-02-20 02:23:00,
2013-02-19 20:28:00,19.8,1.0,30.37,ENE,66,5.0,0.0,43,0.00,,,0.00,0,WeatherTracker,2013-02-20 02:28:00,
2013-02-19 20:33:00,19.7,0.9,30.37,ENE,67,4.0,0.0,43,0.00,,,0.00,0,WeatherTracker,2013-02-20 02:33:00,
2013-02-19 20:38:00,19.5,1.2,30.37,ENE,69,5.0,0.0,44,0.00,,,0.00,0,WeatherTracker,2013-02-20 02:38:00,
2013-02-19 20:43:00,19.3,1.0,30.38,ENE,69,3.0,0.0,44,0.00,,,0.00,0,WeatherTracker,2013-02-20 02:43:00,
2013-02-19 20:48:00,19.0,1.2,30.38,ENE,71,4.0,0.0,45,0.00,,,0.00,0,WeatherTracker,2013-02-20 02:48:00,
2013-02-19 20:53:00,18.8,1.5,30.38,ENE,71,3.0,0.0,46,0.00,,,0.00,0,WeatherTracker,2013-02-20 02:53:00,
2013-02-19 20:58:00,18.6,1.3,30.39,ENE,71,3.0,0.0,46,0.00,,,0.00,0,WeatherTracker,2013-02-20 02:58:00,
2013-02-19 21:03:00,18.3,1.5,30.39,ENE,71,3.0,0.0,47,0.00,,,0.00,0,WeatherTracker,2013-02-20 03:03:00,
2013-02-19 21:08:00,18.1,1.3,30.39,ENE,71,3.0,0.0,47,0.00,,,0.00,0,WeatherTracker,2013-02-20 03:08:00,
2013-02-19 21:13:00,17.9,1.6,30.39,ENE,71,2.0,0.0,48,0.00,,,0.00,0,WeatherTracker,2013-02-20 03:13:00,
2013-02-19 21:18:00,17.7,0.9,30.38,ENE,71,3.0,0.0,47,0.00,,,0.00,0,WeatherTracker,2013-02-20 03:18:00,
2013-02-19 21:23:00,17.5,1.2,30.39,ENE,72,2.0,0.0,48,0.00,,,0.00,0,WeatherTracker,2013-02-20 03:23:00,
2013-02-19 21:28:00,17.2,1.4,30.39,ENE,74,3.0,0.0,49,0.00,,,0.00,0,WeatherTracker,2013-02-20 03:28:00,
2013-02-19 21:33:00,16.9,1.5,30.39,ENE,74,4.0,0.0,50,0.00,,,0.00,0,WeatherTracker,2013-02-20 03:33:00,
2013-02-19 21:38:00,16.6,1.7,30.39,ENE,74,3.0,0.0,51,0.00,,,0.00,0,WeatherTracker,2013-02-20 03:38:00,
2013-02-19 21:43:00,16.4,1.5,30.39,ENE,74,3.0,0.0,51,0.00,,,0.00,0,WeatherTracker,2013-02-20 03:43:00,
2013-02-19 21:49:00,16.3,1.4,30.39,ENE,74,2.0,0.0,51,0.00,,,0.00,0,WeatherTracker,2013-02-20 03:49:00,
2013-02-19 21:54:00,16.2,1.3,30.39,ENE,73,6.0,0.0,51,0.00,,,0.00,0,WeatherTracker,2013-02-20 03:54:00,
2013-02-19 21:59:00,16.1,1.6,30.39,ENE,73,5.0,0.0,52,0.00,,,0.00,0,WeatherTracker,2013-02-20 03:59:00,
2013-02-19 22:04:00,16.1,1.6,30.39,ENE,72,4.0,0.0,52,0.00,,,0.00,0,WeatherTracker,2013-02-20 04:04:00,
2013-02-19 22:09:00,16.1,1.2,30.39,ENE,72,3.0,0.0,51,0.00,,,0.00,0,WeatherTracker,2013-02-20 04:09:00,
2013-02-19 22:14:00,15.9,1.0,30.39,ENE,76,4.0,0.0,51,0.00,,,0.00,0,WeatherTracker,2013-02-20 04:14:00,
2013-02-19 22:19:00,15.8,1.3,30.39,ENE,65,6.0,0.0,52,0.00,,,0.00,0,WeatherTracker,2013-02-20 04:19:00,
2013-02-19 22:24:00,15.7,1.2,30.39,ENE,69,3.0,0.0,52,0.00,,,0.00,0,WeatherTracker,2013-02-20 04:24:00,
2013-02-19 22:29:00,15.6,1.5,30.39,ENE,71,4.0,0.0,53,0.00,,,0.00,0,WeatherTracker,2013-02-20 04:29:00,
2013-02-19 22:34:00,15.5,1.5,30.39,ENE,71,3.0,0.0,53,0.00,,,0.00,0,WeatherTracker,2013-02-20 04:34:00,
2013-02-19 22:39:00,15.4,1.4,30.39,ENE,71,4.0,0.0,53,0.00,,,0.00,0,WeatherTracker,2013-02-20 04:39:00,
2013-02-19 22:44:00,15.4,1.4,30.39,East,89,4.0,0.0,53,0.00,,,0.00,0,WeatherTracker,2013-02-20 04:44:00,
2013-02-19 22:49:00,15.2,1.2,30.39,ENE,65,6.0,0.0,53,0.00,,,0.00,0,WeatherTracker,2013-02-20 04:49:00,
2013-02-19 22:54:00,15.1,1.1,30.39,ENE,69,4.0,0.0,53,0.00,,,0.00,0,WeatherTracker,2013-02-20 04:54:00,
2013-02-19 22:59:00,15.0,1.0,30.39,ENE,67,5.0,0.0,53,0.00,,,0.00,0,WeatherTracker,2013-02-20 04:59:00,
2013-02-19 23:00:00,15.0,1.0,30.39,ENE,67,5.0,0.0,53,0.00,,,0.00,0,WeatherTracker,2013-02-20 05:00:00,
2013-02-19 23:05:00,14.9,0.9,30.39,ENE,68,3.0,0.0,53,0.00,,,0.00,0,WeatherTracker,2013-02-20 05:05:00,
2013-02-19 23:10:00,14.8,0.8,30.39,ENE,68,3.0,0.0,53,0.00,,,0.00,0,WeatherTracker,2013-02-20 05:10:00,
2013-02-19 23:15:00,14.8,1.2,30.40,ENE,69,3.0,0.0,54,0.00,,,0.00,0,WeatherTracker,2013-02-20 05:15:00,
2013-02-19 23:20:00,14.7,1.1,30.40,ENE,69,3.0,0.0,54,0.00,,,0.00,0,WeatherTracker,2013-02-20 05:20:00,
2013-02-19 23:26:00,14.6,1.0,30.40,ENE,68,2.0,0.0,54,0.00,,,0.00,0,WeatherTracker,2013-02-20 05:26:00,
2013-02-19 23:31:00,14.6,1.0,30.41,ENE,69,1.0,0.0,54,0.00,,,0.00,0,WeatherTracker,2013-02-20 05:31:00,
2013-02-19 23:36:00,14.5,1.3,30.41,ENE,69,3.0,0.0,55,0.00,,,0.00,0,WeatherTracker,2013-02-20 05:36:00,
2013-02-19 23:41:00,14.5,1.3,30.41,ENE,69,4.0,0.0,55,0.00,,,0.00,0,WeatherTracker,2013-02-20 05:41:00,
2013-02-19 23:46:00,14.4,1.2,30.41,East,83,3.0,0.0,55,0.00,,,0.00,0,WeatherTracker,2013-02-20 05:46:00,
2013-02-19 23:51:00,14.3,1.1,30.41,East,83,3.0,0.0,55,0.00,,,0.00,0,WeatherTracker,2013-02-20 05:51:00,
2013-02-19 23:56:00,14.3,1.1,30.40,East,87,5.0,0.0,55,0.00,,,0.00,0,WeatherTracker,2013-02-20 05:56:00,